Location: Luz Observatory
(34.5000°N, 117.2833°W)
Time: 20:07:00
(UTC-07:00)

Cosmos 1484 Rocket - Visible Passes

Search period start: 18 April 2015 00:00
Search period end: 28 April 2015 00:00
Orbit: 512 x 568 km, 97.4° (Epoch: 18 April)

Date Brightness Start Highest point End Pass type
(mag) Time Alt. Az. Time Alt. Az. Time Alt. Az.
18 Apr 4.6 20:30:27 10° SSW 20:33:50 30° W 20:37:15 10° NW visible
19 Apr 4.2 20:22:56 10° SSW 20:26:29 38° W 20:30:06 10° NNW visible
20 Apr 3.7 20:15:28 10° S 20:19:09 48° W 20:22:53 10° NNW visible
21 Apr 3.3 20:08:02 10° S 20:11:48 62° W 20:15:39 10° NNW visible
22 Apr 2.9 20:00:40 10° S 20:04:28 79° WSW 20:08:22 10° NNW visible
23 Apr 2.7 19:53:19 10° SSE 19:57:08 82° ENE 20:01:02 10° N visible
24 Apr 2.8 19:46:01 10° SSE 19:49:48 65° ENE 19:53:40 10° N visible
26 Apr 6.0 21:08:56 10° WSW 21:09:59 11° W 21:10:49 10° WNW visible
27 Apr 5.7 21:00:28 10° WSW 21:02:32 13° W 21:04:25 10° WNW visible
